Location: Cardiff
(53.7833°N, 113.6000°W)
Time: 10:15:06
(UTC+00:00)

AO-85 - Pass Details

Date: 03 December 2023
Orbit: 516 x 753 km, 64.8° (Epoch: 04 January)

Event Time Altitude Azimuth Distance (km) Brightness Sun altitude
Rises 03:21:16 0° 314° (NW) 2,808 ? -34.8°
Reaches altitude 10° 03:23:32 10° 321° (NW) 1,941 ? -35.2°
Enters shadow 03:23:51 12° 323° (NW) 1,828 ? -35.2°
